This is the latest recevied weather packets stored in our database for station/object KC3SOZ. If no packets are shown the sender has not sent any weather packets the latest 10 day(s).
| Time | Temp. | Humidity | Pressure | Rain* | Wind** | Luminosity | Snow |
|---|---|---|---|---|---|---|---|
| 1777502799 | 11.11° C | 94% | 1009.1 hPa | 0 mm | - | 35 W/m² | - |
| 1777502496 | 11.11° C | 94% | 1009.1 hPa | 0 mm | - | 36 W/m² | - |
| 1777502193 | 11.67° C | 94% | 1009.3 hPa | 0 mm | - | 46 W/m² | - |
| 1777501891 | 11.67° C | 92% | 1009.4 hPa | 0 mm | - | 48 W/m² | - |
| 1777501587 | 11.67° C | 92% | 1009.1 hPa | 0 mm | - | 56 W/m² | - |
| 1777501285 | 11.67° C | 91% | 1008.9 hPa | 0 mm | - | 48 W/m² | - |
| 1777500983 | 11.67° C | 90% | 1008.6 hPa | 0 mm | - | 50 W/m² | - |
| 1777500680 | 11.67° C | 90% | 1009.2 hPa | 0 mm | - | 49 W/m² | - |
| 1777500376 | 11.67° C | 90% | 1009 hPa | 0 mm | - | 55 W/m² | - |
| 1777500072 | 11.67° C | 89% | 1008.8 hPa | 0 mm | - | 50 W/m² | - |
| 1777499769 | 11.67° C | 88% | 1008.9 hPa | 0 mm | - | 49 W/m² | - |
| 1777499466 | 11.67° C | 87% | 1008.8 hPa | 0 mm | - | 63 W/m² | - |
| 1777499164 | 11.67° C | 86% | 1009.2 hPa | 0 mm | - | 71 W/m² | - |
| 1777498860 | 12.22° C | 85% | 1008.9 hPa | 1.78 mm | - | 75 W/m² | - |
| 1777498557 | 12.22° C | 84% | 1009.1 hPa | 1.78 mm | - | 106 W/m² | - |
| 1777498253 | 12.22° C | 84% | 1009.3 hPa | 0 mm | - | 86 W/m² | - |
| 1777497952 | 12.22° C | 82% | 1009.5 hPa | 0 mm | - | 59 W/m² | - |
| 1777497647 | 12.22° C | 82% | 1009.4 hPa | 0 mm | - | 69 W/m² | - |
| 1777497344 | 12.22° C | 83% | 1009.3 hPa | 0 mm | - | 108 W/m² | - |
| 1777497039 | 12.22° C | 81% | 1009.7 hPa | 0 mm | - | 88 W/m² | - |
| 1777496737 | 12.22° C | 82% | 1009.4 hPa | 0 mm | - | 169 W/m² | - |
| 1777496433 | 12.22° C | 82% | 1009.6 hPa | 0 mm | - | 166 W/m² | - |
| 1777496131 | 12.22° C | 82% | 1009.4 hPa | 0 mm | - | 135 W/m² | - |
| 1777495826 | 12.22° C | 82% | 1009.5 hPa | 0 mm | - | 137 W/m² | - |
| 1777495522 | 12.22° C | 81% | 1009.7 hPa | 0 mm | - | 146 W/m² | - |
* Rain latest hour (hover to see other rain measurements)
** Current wind speed in m/s (hover to see current wind gust speed)